Location: Carrizalito
(10.3833°N, 67.0217°W)
Time: 22:51:58
(UTC+00:00)

Meteor 1-11 Rocket - Pass Details

Date: 09 July 2022
Orbit: 830 x 917 km, 81.2° (Epoch: 07 August)

Event Time Altitude Azimuth Distance (km) Brightness Sun altitude
Exits shadow 07:02:06 22° 82° (E) 1,901 5.9 -41.0°
Drops below altitude 10° 07:05:45 10° 44° (NE) 2,589 6.9 -40.3°
Sets 07:08:44 0° 29° (NNE) 3,521 7.7 -39.8°
